Total_Precipitation_Accumulation
1.04 1.33 1.75 2.04 2.45 2.88 3.04 3.09 3.01 3.17 3.46 3.40 3.19 2.92 2.61 2.38 2.16 2.02 1.91 1.79 1.70 1.61 1.53 1.41 1.42 1.39 1.31 1.26 1.23 1.19 1.14 1.05 0.99 0.96 0.84 0.70 0.63 0.58 0.52 0.51 0.50 0.48 0.48
0.95 1.24 1.53 1.84 2.07 2.64 2.96 3.00 3.08 3.19 3.37 3.32 3.21 3.12 2.97 2.73 2.49 2.32 2.04 1.87 1.75 1.66 1.61 1.51 1.39 1.42 1.44 1.37 1.34 1.33 1.33 1.29 1.25 1.22 1.18 1.00 0.82 0.63 0.53 0.52 0.53 0.54 0.57
0.91 1.10 1.30 1.57 1.72 2.10 2.55 2.75 2.79 3.00 3.16 3.37 3.65 3.64 3.46 3.07 2.60 2.31 2.15 1.98 1.95 1.85 1.70 1.69 1.62 1.48 1.48 1.44 1.36 1.29 1.28 1.30 1.32 1.29 1.37 1.25 0.98 0.75 0.61 0.53 0.51 0.52 0.55
0.85 1.01 1.16 1.27 1.46 1.70 2.10 2.48 2.67 2.80 2.85 2.98 3.29 3.43 3.29 2.89 2.50 2.26 2.25 2.26 2.16 2.12 2.03 1.90 1.84 1.71 1.61 1.54 1.52 1.50 1.42 1.39 1.37 1.34 1.25 1.17 1.03 0.97 0.82 0.63 0.57 0.55 0.55
0.90 1.00 1.07 1.08 1.20 1.44 1.81 2.16 2.44 2.65 2.67 2.62 2.77 3.04 3.18 3.07 2.87 2.61 2.45 2.39 2.30 2.17 2.12 2.05 1.99 1.87 1.75 1.71 1.71 1.66 1.63 1.59 1.50 1.43 1.34 1.29 1.12 1.01 1.02 0.82 0.64 0.64 0.62
0.97 0.99 1.02 1.03 1.08 1.23 1.49 1.80 2.08 2.41 2.58 2.52 2.59 2.70 2.78 2.92 2.88 2.61 2.53 2.44 2.46 2.35 2.17 2.06 2.02 1.97 1.90 1.84 1.84 1.85 1.79 1.70 1.62 1.58 1.52 1.48 1.40 1.20 1.16 1.08 0.85 0.79 0.72
0.88 0.89 0.89 0.92 1.03 1.15 1.29 1.51 1.64 1.92 2.21 2.34 2.38 2.44 2.51 2.60 2.71 2.64 2.54 2.48 2.36 2.29 2.23 2.11 2.06 2.04 1.94 1.89 1.89 1.86 1.80 1.77 1.70 1.67 1.64 1.57 1.47 1.38 1.41 1.44 1.26 1.10 0.92
0.90 0.91 0.89 0.93 1.06 1.12 1.20 1.33 1.45 1.58 1.84 2.06 2.09 2.13 2.28 2.35 2.35 2.41 2.37 2.32 2.26 2.19 2.22 2.21 2.08 2.04 2.00 1.90 1.85 1.81 1.73 1.72 1.71 1.64 1.62 1.60 1.53 1.51 1.54 1.60 1.65 1.55 1.26
0.85 0.91 0.94 0.98 1.03 1.07 1.13 1.23 1.32 1.35 1.49 1.75 1.87 1.94 2.00 2.01 1.94 1.96 1.97 1.99 2.02 2.04 2.06 2.08 1.99 1.90 1.88 1.83 1.79 1.74 1.65 1.61 1.60 1.56 1.53 1.50 1.45 1.46 1.47 1.54 1.70 1.90 1.74
0.84 0.91 0.95 0.92 0.92 0.95 1.04 1.15 1.18 1.18 1.23 1.39 1.52 1.68 1.76 1.75 1.76 1.73 1.67 1.65 1.64 1.69 1.76 1.81 1.80 1.74 1.70 1.68 1.65 1.60 1.57 1.56 1.49 1.46 1.45 1.39 1.33 1.37 1.44 1.50 1.57 1.73 1.86
0.86 0.94 0.98 0.93 0.90 0.93 0.99 1.08 1.07 1.07 1.10 1.19 1.26 1.34 1.47 1.54 1.57 1.53 1.41 1.40 1.37 1.36 1.40 1.41 1.44 1.47 1.48 1.49 1.48 1.45 1.44 1.45 1.41 1.41 1.44 1.40 1.34 1.35 1.36 1.39 1.43 1.49 1.62
0.78 0.85 0.92 0.91 0.92 0.96 0.99 1.05 1.03 1.04 1.04 1.08 1.11 1.15 1.24 1.38 1.42 1.44 1.34 1.24 1.25 1.20 1.20 1.20 1.18 1.18 1.19 1.23 1.25 1.23 1.25 1.29 1.28 1.27 1.32 1.34 1.33 1.35 1.32 1.31 1.30 1.28 1.28
0.71 0.73 0.77 0.83 0.87 0.92 0.96 1.03 1.01 0.95 0.94 0.96 0.96 1.03 1.13 1.22 1.26 1.26 1.28 1.20 1.20 1.12 1.09 1.08 1.06 1.04 1.02 1.03 1.08 1.13 1.15 1.17 1.17 1.17 1.19 1.21 1.27 1.26 1.19 1.17 1.15 1.13 1.15
0.61 0.61 0.66 0.71 0.76 0.81 0.88 0.90 0.93 0.92 0.92 0.91 0.88 0.91 0.99 1.13 1.17 1.11 1.13 1.13 1.17 1.16 1.06 1.00 0.98 0.98 0.99 1.00 1.02 1.10 1.15 1.16 1.16 1.17 1.18 1.14 1.13 1.11 1.08 1.08 1.10 1.17 1.27
0.53 0.55 0.58 0.60 0.65 0.68 0.72 0.77 0.81 0.84 0.88 0.89 0.87 0.86 0.88 0.98 1.04 0.99 0.99 1.01 1.04 1.14 1.12 1.05 1.01 0.98 0.98 1.01 1.04 1.07 1.12 1.15 1.16 1.14 1.11 1.08 1.10 1.08 1.07 1.09 1.11 1.19 1.35
0.50 0.49 0.50 0.51 0.51 0.53 0.59 0.64 0.70 0.75 0.82 0.84 0.86 0.84 0.83 0.88 0.98 0.96 0.94 0.95 1.00 1.09 1.14 1.15 1.12 1.06 1.04 1.20 1.18 1.10 1.09 1.12 1.13 1.12 1.06 1.04 1.08 1.05 1.07 1.10 1.17 1.32 1.49
0.40 0.41 0.43 0.45 0.45 0.45 0.47 0.53 0.58 0.62 0.71 0.78 0.82 0.84 0.87 0.91 0.96 0.97 0.97 1.02 1.07 1.14 1.18 1.21 1.23 1.19 1.22 1.28 1.15 1.13 1.04 1.02 1.04 1.03 1.01 0.98 0.95 1.00 0.92 1.00 1.13 1.22 1.35
0.36 0.39 0.40 0.41 0.40 0.40 0.39 0.42 0.48 0.53 0.60 0.67 0.76 0.79 0.83 0.86 0.88 0.95 0.98 1.03 1.08 1.14 1.19 1.23 1.21 1.16 1.16 1.18 1.07 1.04 0.97 0.96 0.96 0.94 0.93 0.96 0.96 0.95 1.01 1.08 1.13 1.02 0.95
0.37 0.37 0.37 0.38 0.38 0.35 0.35 0.39 0.46 0.50 0.53 0.62 0.74 0.80 0.86 0.88 0.91 0.98 0.99 1.01 1.08 1.10 1.07 1.09 1.11 1.09 1.09 1.06 0.97 0.95 0.89 0.91 0.87 0.83 0.83 0.87 0.88 1.05 1.23 1.27 1.27 1.07 0.87
0.33 0.34 0.33 0.33 0.36 0.39 0.41 0.44 0.50 0.54 0.56 0.62 0.71 0.78 0.87 0.97 1.01 1.02 1.01 0.98 1.01 1.08 1.02 0.97 0.94 0.92 0.93 0.96 0.90 0.88 0.83 0.86 0.83 0.79 0.79 0.88 0.90 1.07 1.22 1.17 1.22 1.18 0.98
0.36 0.34 0.33 0.35 0.43 0.49 0.50 0.52 0.57 0.63 0.65 0.67 0.72 0.75 0.79 0.86 0.91 0.92 0.93 0.94 0.93 0.93 0.88 0.85 0.83 0.78 0.78 0.83 0.80 0.79 0.77 0.80 0.82 0.77 0.72 0.74 0.95 1.07 1.15 1.10 0.99 1.09 1.17
0.38 0.34 0.34 0.37 0.39 0.47 0.53 0.54 0.58 0.61 0.62 0.64 0.71 0.77 0.77 0.79 0.81 0.83 0.86 0.89 0.87 0.84 0.79 0.75 0.73 0.69 0.68 0.72 0.73 0.76 0.79 0.87 0.82 0.74 0.67 0.72 0.92 0.96 0.97 0.95 1.00 1.17 1.17
0.38 0.34 0.32 0.33 0.34 0.38 0.45 0.54 0.57 0.59 0.60 0.62 0.68 0.74 0.74 0.75 0.79 0.78 0.80 0.80 0.78 0.74 0.71 0.69 0.67 0.65 0.63 0.68 0.76 0.78 0.84 0.89 0.83 0.75 0.80 0.84 0.86 0.83 0.83 0.93 1.07 1.07 0.97
0.34 0.32 0.30 0.31 0.34 0.36 0.38 0.44 0.50 0.53 0.58 0.60 0.62 0.66 0.70 0.70 0.69 0.70 0.74 0.76 0.77 0.74 0.69 0.68 0.66 0.62 0.60 0.62 0.66 0.73 0.78 0.81 0.82 0.83 0.83 0.80 0.78 0.79 0.82 0.89 0.91 0.92 1.00
0.34 0.34 0.33 0.32 0.34 0.34 0.35 0.36 0.39 0.44 0.50 0.55 0.57 0.57 0.59 0.63 0.65 0.65 0.69 0.74 0.75 0.79 0.81 0.77 0.74 0.73 0.69 0.65 0.77 0.83 0.80 0.82 0.84 0.85 0.78 0.74 0.73 0.75 0.75 0.78 0.81 0.88 1.02
0.33 0.32 0.32 0.31 0.33 0.33 0.36 0.37 0.38 0.41 0.45 0.48 0.50 0.52 0.54 0.56 0.60 0.61 0.62 0.68 0.71 0.77 0.79 0.82 0.83 0.78 0.77 0.79 0.79 0.80 0.84 0.88 0.91 0.89 0.83 0.78 0.76 0.79 0.79 0.81 0.84 0.88 1.02